KA8JMW-WX Weather Reports


time (UTC)temp
C
wind
direction
speed
KPH
gust
KPH
rain 1hr
cm
rain 24hr
cm
rain mn
cm
humidity
%
barometer
mb
20230208172515 2 307 17.7 27.4 0.00 0.46 0.00 60 1008.9
20230208171515 2 311 14.5 24.1 0.00 0.46 0.00 61 1009.1
20230208170515 2 292 12.9 22.5 0.00 0.46 0.00 64 1008.9
20230208165515 2 319 12.9 27.4 0.00 0.46 0.00 63 1009.0
20230208164555 1 312 14.5 22.5 0.00 0.46 0.00 63 1008.8
20230208163515 1 291 9.7 20.9 0.00 0.46 0.00 69 1008.7
20230208162515 1 291 9.7 16.1 0.00 0.46 0.00 70 1008.8
20230208161515 0 307 14.5 20.9 0.00 0.46 0.00 71 1008.3
20230208160515 0 324 11.3 17.7 0.00 0.46 0.00 72 1008.2
20230208155515 0 318 9.7 16.1 0.00 0.46 0.00 76 1008.2
20230208154515 0 328 9.7 14.5 0.00 0.46 0.00 77 1007.9
20230208153515 0 307 9.7 14.5 0.00 0.46 0.00 77 1007.8
20230208152515 -1 275 11.3 16.1 0.00 0.46 0.00 80 1007.8
20230208151515 -1 278 11.3 16.1 0.00 0.46 0.00 83 1007.2
20230208150515 -2 271 12.9 20.9 0.00 0.46 0.00 87 1006.6
20230208145515 -3 274 12.9 17.7 0.00 0.46 0.00 89 1006.6
20230208144515 -3 273 11.3 19.3 0.00 0.46 0.00 90 1006.0
20230208143515 -4 278 12.9 19.3 0.00 0.46 0.00 90 1006.1
20230208142515 -4 270 12.9 17.7 0.00 0.46 0.00 90 1006.0
20230208141515 -4 271 11.3 16.1 0.00 0.46 0.00 90 1006.0
20230208140515 -4 271 12.9 16.1 0.00 0.46 0.00 89 1006.0
20230208135515 -4 294 8.0 14.5 0.00 0.46 0.00 86 1005.9
20230208134515 -3 291 8.0 14.5 0.00 0.46 0.00 85 1006.4
20230208133515 -3 299 11.3 16.1 0.00 0.46 0.00 86 1006.4
20230208132515 -3 298 9.7 14.5 0.00 0.46 0.00 87 1006.4
20230208131515 -3 280 9.7 17.7 0.00 0.46 0.00 88 1006.4
20230208130535 -4 294 9.7 20.9 0.00 0.46 0.00 90 1006.0
20230208125515 -4 307 8.0 12.9 0.00 0.46 0.00 92 1005.9
20230208124515 -3 302 9.7 16.1 0.00 0.46 0.00 92 1006.4
20230208123515 -3 304 8.0 12.9 0.00 0.46 0.00 94 1006.5
20230208122535 -3 307 11.3 17.7 0.00 0.46 0.00 94 1006.8
20230208121515 -3 322 8.0 12.9 0.00 0.46 0.00 94 1007.2
20230208120515 -3 312 8.0 16.1 0.00 0.46 0.00 94 1007.8
20230208115515 -2 309 8.0 14.5 0.00 0.46 0.00 94 1007.9
20230208114515 -2 313 6.4 14.5 0.00 0.46 0.00 94 1008.0
20230208113515 -2 323 4.8 6.4 0.00 0.46 0.00 93 1008.2
20230208112515 -2 316 4.8 9.7 0.00 0.46 0.00 93 1008.1
20230208111515 -2 313 6.4 9.7 0.00 0.46 0.00 93 1008.7
20230208110515 -2 287 0.0 4.8 0.00 0.46 0.00 93 1008.8
20230208105515 -2 0.0 0.0 0.00 0.46 0.00 93 1008.8
20230208104535 -2 0.0 0.0 0.00 0.46 0.00 94 1008.7
20230208103515 -2 0.0 0.0 0.00 0.46 0.00 94 1009.0
20230208102515 -2 305 0.0 1.6 0.00 0.46 0.00 94 1009.0
20230208101535 -2 315 4.8 6.4 0.00 0.46 0.00 94 1008.9
20230208100515 -2 316 3.2 4.8 0.00 0.46 0.00 94 1008.7
20230208095515 -2 286 6.4 9.7 0.00 0.46 0.00 94 1009.2
20230208094535 -2 294 4.8 6.4 0.00 0.46 0.00 93 1009.0
20230208093535 -2 285 6.4 9.7 0.00 0.46 0.00 93 1008.9
20230208092515 -2 288 4.8 8.0 0.00 0.46 0.00 93 1008.8
20230208091555 -2 274 6.4 11.3 0.00 0.46 0.00 92 1008.9
20230208090515 -1 291 4.8 8.0 0.00 0.46 0.00 92 1009.4
20230208085515 -2 286 6.4 9.7 0.00 0.46 0.00 93 1009.5
20230208084515 -1 277 9.7 16.1 0.00 0.46 0.00 92 1009.5
20230208083535 -1 278 8.0 11.3 0.00 0.46 0.00 92 1009.3
20230208082535 -2 286 4.8 9.7 0.00 0.46 0.00 92 1009.1
20230208081515 -2 0.0 0.0 0.00 0.46 0.00 93 1009.5
20230208080515 -2 0.0 0.0 0.00 0.46 0.00 93 1009.8
20230208075515 -2 0.0 0.0 0.00 0.46 0.00 92 1009.4
20230208074535 -2 0.0 0.0 0.00 0.46 0.00 92 1009.6
20230208073515 -2 0.0 0.0 0.00 0.46 0.00 92 1009.7
20230208072515 -2 0.0 0.0 0.00 0.46 0.00 92 1009.8
20230208071515 -2 0.0 0.0 0.00 0.46 0.00 92 1010.0
20230208070515 -1 0.0 0.0 0.00 0.46 0.00 92 1009.8
20230208065515 -1 0.0 0.0 0.00 0.46 0.46 93 1009.5
20230208064515 -1 0.0 0.0 0.00 0.46 0.46 92 1009.6
20230208063515 -1 0.0 0.0 0.00 0.46 0.46 93 1010.1
20230208062515 -1 0.0 0.0 0.00 0.46 0.46 92 1009.9
20230208061515 -1 0.0 0.0 0.00 0.46 0.46 92 1009.9
20230208060515 -1 0.0 0.0 0.00 0.46 0.46 92 1010.2
20230208055515 -1 0.0 0.0 0.00 0.46 0.46 92 1010.2
20230208054515 -1 0.0 0.0 0.00 0.46 0.46 92 1010.8
20230208053515 -1 0.0 0.0 0.00 0.46 0.46 92 1010.9
20230208052515 -1 0.0 0.0 0.00 0.46 0.46 92 1010.9
20230208051515 -1 0.0 0.0 0.00 0.46 0.46 92 1010.9
20230208050515 -1 0.0 0.0 0.00 0.46 0.46 92 1010.9
20230208045515 -1 0.0 0.0 0.00 0.46 0.46 92 1011.4
20230208044515 -1 0.0 0.0 0.00 0.46 0.46 92 1011.6
20230208043515 -1 0.0 0.0 0.00 0.46 0.46 91 1011.6
20230208042515 -1 0.0 0.0 0.00 0.46 0.46 91 1011.4
20230208041515 -1 0.0 0.0 0.00 0.46 0.46 91 1011.1
20230208040515 -1 0.0 0.0 0.00 0.46 0.46 91 1011.2
20230208035515 -1 0.0 0.0 0.00 0.46 0.46 91 1011.1
20230208034515 -1 0.0 0.0 0.00 0.46 0.46 90 1011.1
20230208033515 -1 0.0 0.0 0.00 0.46 0.46 90 1011.1
20230208032515 -1 0.0 0.0 0.00 0.46 0.46 90 1010.7
20230208031515 -1 0.0 0.0 0.00 0.46 0.46 90 1010.6
20230208030535 -1 0.0 0.0 0.00 0.46 0.46 90 1010.4
20230208025515 -1 0.0 0.0 0.00 0.46 0.46 90 1010.2
20230208024515 -1 0.0 0.0 0.00 0.46 0.46 90 1010.2
20230208023515 -1 0.0 0.0 0.00 0.46 0.46 90 1010.2
20230208022515 -1 0.0 0.0 0.00 0.46 0.46 90 1010.2
20230208021515 -1 0.0 0.0 0.00 0.46 0.46 89 1010.2
20230208020515 -1 0.0 0.0 0.00 0.46 0.46 89 1010.2
20230208015535 0 0.0 0.0 0.00 0.46 0.46 88 1010.2
20230208014515 0 63 0.0 1.6 0.00 0.46 0.46 87 1010.2
20230208013515 0 0.0 0.0 0.00 0.46 0.46 87 1010.1
20230208012515 0 0.0 0.0 0.00 0.46 0.46 87 1010.2
20230208011515 0 0.0 0.0 0.00 0.46 0.46 87 1010.1
20230208010515 0 0.0 0.0 0.00 0.46 0.46 87 1010.1
20230208005515 0 0.0 0.0 0.00 0.46 0.46 87 1010.0
20230208004536 0 0.0 0.0 0.00 0.46 0.46 86 1010.3
20230208003535 0 0.0 0.0 0.03 0.46 0.46 85 1010.3
20230208002515 0 199 3.2 6.4 0.03 0.46 0.46 85 1010.2
20230208001536 0 187 4.8 8.0 0.03 0.46 0.46 84 1010.2
20230208000515 1 148 0.0 6.4 0.03 0.46 0.46 83 1010.7
20230207235555 1 174 1.6 6.4 0.03 0.46 0.46 82 1010.7
20230207234515 1 174 3.2 6.4 0.05 0.46 0.46 82 1010.7
20230207233515 1 186 6.4 9.7 0.03 0.43 0.43 82 1010.6
20230207232515 1 165 4.8 8.0 0.03 0.43 0.43 83 1010.6
20230207231535 1 112 6.4 9.7 0.05 0.43 0.43 80 1010.5
20230207230515 1 177 1.6 6.4 0.05 0.43 0.43 79 1010.5
20230207225515 1 132 1.6 6.4 0.08 0.43 0.43 77 1010.6
20230207224515 1 177 3.2 6.4 0.05 0.41 0.41 79 1010.4
20230207223515 1 124 4.8 8.0 0.08 0.41 0.41 78 1010.3
20230207222515 1 119 1.6 3.2 0.08 0.41 0.41 78 1010.4
20230207221535 1 123 4.8 8.0 0.08 0.38 0.38 78 1010.3
20230207220515 1 110 4.8 11.3 0.08 0.38 0.38 80 1010.2
20230207215515 1 128 6.4 11.3 0.08 0.36 0.36 81 1010.4
20230207214535 1 88 3.2 8.0 0.08 0.36 0.36 81 1010.5
20230207213515 1 64 8.0 12.9 0.08 0.33 0.33 83 1010.1
20230207212515 0 100 11.3 16.1 0.08 0.33 0.33 85 1010.1
20230207211515 0 112 9.7 14.5 0.08 0.30 0.30 85 1010.2
20230207210515 1 89 9.7 14.5 0.08 0.30 0.30 82 1010.2
20230207205515 1 69 9.7 14.5 0.08 0.28 0.28 80 1010.7
20230207204515 0 65 14.5 20.9 0.08 0.28 0.28 81 1010.7
20230207203515 0 61 11.3 16.1 0.08 0.25 0.25 82 1010.7
20230207202515 0 62 12.9 20.9 0.08 0.25 0.25 84 1010.7
20230207201515 0 52 12.9 20.9 0.08 0.23 0.23 83 1011.0
20230207200515 1 65 14.5 22.5 0.08 0.23 0.23 82 1011.0
20230207195515 0 68 12.9 19.3 0.08 0.20 0.20 81 1011.2
20230207194515 0 61 16.1 25.7 0.08 0.20 0.20 81 1011.2
20230207193515 0 60 17.7 27.4 0.08 0.18 0.18 84 1010.8
20230207192515 0 61 17.7 32.2 0.10 0.18 0.18 82 1011.4
20230207191515 0 67 17.7 24.1 0.10 0.15 0.15 81 1011.6
20230207190515 0 72 19.3 29.0 0.10 0.15 0.15 86 1011.0
20230207185535 -1 92 16.1 24.1 0.10 0.13 0.13 88 1010.8
20230207184515 -1 103 17.7 27.4 0.13 0.13 0.13 88 1011.0
20230207183515 0 114 20.9 35.4 0.10 0.10 0.10 85 1011.3
20230207182515 0 118 16.1 25.7 0.08 0.08 0.08 85 1011.0
20230207181515 -1 103 16.1 20.9 0.05 0.05 0.05 86 1011.0
20230207180515 0 81 16.1 25.7 0.05 0.05 0.05 87 1011.1
20230207175515 0 91 16.1 24.1 0.03 0.03 0.03 86 1011.3
20230207174515 0 102 12.9 17.7 0.00 0.00 0.00 82 1011.8
20230207173515 1 76 8.0 12.9 0.00 0.00 0.00 83 1011.5